Torna al catalogo

COSMOS 2345

AttivoNavigazioneMEO
NORAD 24894·PAYLOAD·🇷🇺 Russia

Lanciato Aug 14, 1997 da Baikonur Cosmodrome

Loading…

Prossimi Passaggi (prossime 24 ore)

TLE

AggiornatoSource: Space-Track

Epoca: Sep 14, 2026, 10:47 UTC

1 24894U 97041A   26257.44953712 -.00000068  00000-0  00000-0 0  9990
2 24894  14.4101 357.0703 0164853 302.2811  87.7644  1.00385227106550

Traccia COSMOS 2345 in tempo reale con AllMySat

Download on the App Store